Location: Lewisville
(33.0462°N, 96.9942°W)
Time: 04:48:18
(UTC-05:00)

Envisat - Pass Details

Date: 31 August 2021
Orbit: 764 x 766 km, 98.2° (Epoch: 27 September)

Event Time Altitude Azimuth Distance (km) Brightness Sun altitude
Rises 06:11:05 0° 19° (NNE) 3,234 6.8 -11.2°
Reaches altitude 10° 06:13:29 10° 25° (NNE) 2,304 6.1 -10.7°
Maximum altitude 06:18:22 47° 99° (E) 1,003 4.1 -9.7°
Drops below altitude 10° 06:23:13 10° 173° (S) 2,290 5.4 -8.7°
Sets 06:25:35 0° 179° (S) 3,212 6.1 -8.3°
